Home > Weather > Roanoke > Past weeks

Flag for USA Past Weather in Roanoke, Virginia, USA — Yesterday and Last 2 Weeks

Now
76 °F

Scattered clouds.


Feels Like: 78 °F
Forecast: 54 / 82 °F
Wind: 9 mph from Northwest

Location: Roanoke Regional Airport

Current Time: May 24, 2016 at 3:46:22 PM

Latest Report: May 24, 2016 at 2:54 PM


Visibility: 10 mi

Pressure: 30.09 "Hg

Humidity: 39%

Dew Point: 49 °F

Location of RoanokeLocation

Past Weather in Roanoke — Graph

°F

Roanoke Temperature Yesterday

Maximum temperature yesterday: 71 °F (at 4:54 PM)
Minimum temperature yesterday: 53 °F (at 3:54 AM)
Average temperature yesterday: 60 °F

High & Low Weather Summary for the Past Weeks

 TemperatureHumidityPressure
High77 °F (May 12, 2:54 PM)100% (May 10, 11:04 PM)30.32 "Hg (May 10, 11:04 PM)
Low45 °F (May 16, 3:54 AM)27% (May 16, 4:54 PM)29.77 "Hg (May 14, 4:54 PM)
Average61 °F74%30.06 "Hg
* Reported May 9 2:54 PM — May 24 2:54 PM, Roanoke, Weather by CustomWeather, © 2016

Note: Actual official high and low records may vary slightly from our data, if they occured in-between our weather recording intervals... More about our weather records

Advertising

Roanoke Weather History for the Previous 24 Hours

Scroll right to see more
 ConditionsComfort  
Time TempWeatherWind HumidityBarometerVisibility
2:54 PM
Tue, May 24
76 °FScattered clouds.9 mph39%30.09 "Hg10 mi
1:54 PM76 °FPartly sunny.12 mph42%30.10 "Hg10 mi
12:54 PM77 °FScattered clouds.8 mph42%30.11 "Hg10 mi
11:54 AM75 °FScattered clouds.6 mph48%30.12 "Hg10 mi
10:54 AM71 °FSunny.8 mph57%30.13 "Hg10 mi
9:54 AM67 °FSunny.9 mph63%30.13 "Hg10 mi
8:54 AM62 °FSunny.No wind75%30.14 "Hg10 mi
7:54 AM59 °FSunny.3 mph81%30.11 "Hg10 mi
6:54 AM54 °FClear.3 mph86%30.10 "Hg10 mi
5:54 AM54 °FPassing clouds.No wind86%30.06 "Hg10 mi
4:54 AM53 °FClear.3 mph89%30.05 "Hg10 mi
3:54 AM53 °FClear.3 mph93%30.04 "Hg10 mi
2:54 AM53 °FClear.No wind93%30.04 "Hg10 mi
1:54 AM57 °FClear.3 mph83%30.04 "Hg10 mi
12:54 AM57 °FClear.No wind90%30.05 "Hg10 mi
11:54 PM
Mon, May 23
58 °FPassing clouds.6 mph84%30.05 "Hg10 mi
10:54 PM56 °FClear.3 mph93%30.05 "Hg10 mi
9:54 PM58 °FPassing clouds.No wind90%30.04 "Hg10 mi
8:54 PM57 °FPartly sunny.3 mph93%30.03 "Hg10 mi
7:54 PM61 °FBroken clouds.No wind78%30.01 "Hg10 mi
6:54 PM62 °FLight rain. Overcast.10 mph70%30.01 "Hg10 mi
5:54 PM69 °FPartly sunny.No wind45%29.98 "Hg10 mi
4:54 PM71 °FScattered clouds.No wind42%29.98 "Hg10 mi
3:54 PM67 °FPartly sunny.13 mph55%29.99 "Hg10 mi
Weather by CustomWeather, © 2016

See weather overviewHow to use our weather pages